,,PA_Meas_PMT16A,,PR_Meas_QMR101_102,,RH_Meas_QMH101,,SR_Meas_QMS101,,TA_Meas_QMH101,,GenWind,,GenWind,
time,status,PA,status,PR,status,RH,status,SR,status,TA,status,DirAvg,status,SpdAvg,
2016-08-03, 00:00:04,VALID,913.886,VALID,0,VALID,68.6946,VALID,147.517,VALID,26.8374,VALID,48,VALID,0.213672,
2016-08-03, 00:01:04,VALID,913.897,VALID,0,VALID,69.0758,VALID,143.434,VALID,26.7593,VALID,309,VALID,0.00117188,
2016-08-03, 00:02:04,VALID,913.893,VALID,0,VALID,69.9067,VALID,165.459,VALID,26.6226,VALID,18,VALID,0.596484,
2016-08-03, 00:03:04,VALID,913.91,VALID,0,VALID,70.8063,VALID,128.392,VALID,26.5835,VALID,33,VALID,0,
2016-08-03, 00:04:04,VALID,913.879,VALID,0,VALID,69.3578,VALID,164.707,VALID,26.5444,VALID,30,VALID,0,
2016-08-03, 00:05:04,VALID,913.887,VALID,0,VALID,70.9816,VALID,194.361,VALID,26.5074,VALID,35,VALID,0.00273437,
2016-08-03, 00:06:04,VALID,913.885,VALID,0,VALID,70.8673,VALID,239.594,VALID,26.5269,VALID,19,VALID,0.591797,
2016-08-03, 00:07:04,VALID,913.905,VALID,0,VALID,69.6933,VALID,231.965,VALID,26.5464,VALID,18,VALID,0.200391,
2016-08-03, 00:08:04,VALID,913.883,VALID,0,VALID,68.5345,VALID,227.883,VALID,26.5444,VALID,300,VALID,0,
2016-08-03, 00:09:04,VALID,913.903,VALID,0,VALID,69.6552,VALID,222.511,VALID,26.4683,VALID,40,VALID,0,
2016-08-03, 00:10:04,VALID,913.88,VALID,0,VALID,71.5305,VALID,218.213,VALID,26.4057,VALID,51,VALID,0,
2016-08-03, 00:11:04,VALID,913.944,VALID,0,VALID,70.3031,VALID,210.907,VALID,26.4057,VALID,354,VALID,0,
2016-08-03, 00:12:04,VALID,913.915,VALID,0,VALID,69.4722,VALID,206.072,VALID,26.4272,VALID,298,VALID,0,
2016-08-03, 00:13:04,VALID,913.902,VALID,0,VALID,70.5471,VALID,199.411,VALID,26.3296,VALID,10,VALID,1.36328,
2016-08-03, 00:14:04,VALID,913.923,VALID,0,VALID,71.5763,VALID,195.865,VALID,26.1147,VALID,21,VALID,0.304688,
2016-08-03, 00:15:04,VALID,913.971,VALID,0,VALID,71.8964,VALID,194.791,VALID,26.0366,VALID,21,VALID,0,
2016-08-03, 00:16:04,VALID,913.982,VALID,0,VALID,71.7821,VALID,196.08,VALID,26.1342,VALID,18,VALID,0,
2016-08-03, 00:17:04,VALID,913.987,VALID,0,VALID,71.1875,VALID,196.295,VALID,26.2319,VALID,43,VALID,0.391797,
2016-08-03, 00:18:04,VALID,913.996,VALID,0,VALID,70.7072,VALID,192.857,VALID,26.3296,VALID,99,VALID,0,
2016-08-03, 00:19:04,VALID,914.009,VALID,0,VALID,71.3628,VALID,187.592,VALID,26.3862,VALID,58,VALID,0,
2016-08-03, 00:20:04,VALID,914.04,VALID,0,VALID,69.9448,VALID,182.113,VALID,26.5054,VALID,309,VALID,0,
2016-08-03, 00:21:04,VALID,914.077,VALID,0,VALID,69.8686,VALID,175.129,VALID,26.5054,VALID,329,VALID,0.075,
2016-08-03, 00:22:04,VALID,914.088,VALID,0,VALID,69.9067,VALID,169.327,VALID,26.4292,VALID,12,VALID,0.978906,
2016-08-03, 00:23:04,VALID,914.136,VALID,0,VALID,71.4238,VALID,168.145,VALID,26.1342,VALID,4,VALID,0.15,
2016-08-03, 00:24:04,VALID,914.171,VALID,0,VALID,72.4987,VALID,165.244,VALID,25.8022,VALID,11,VALID,0.776953,
2016-08-03, 00:25:04,VALID,914.173,VALID,0,VALID,73.8099,VALID,162.344,VALID,25.7241,VALID,33,VALID,0,
2016-08-03, 00:26:04,VALID,914.168,VALID,0,VALID,73.8175,VALID,163.203,VALID,25.8804,VALID,33,VALID,0,
2016-08-03, 00:27:04,VALID,914.2,VALID,0,VALID,73.6422,VALID,150.955,VALID,26.0386,VALID,20,VALID,0,
2016-08-03, 00:28:04,VALID,914.18,VALID,0,VALID,73.3601,VALID,98.631,VALID,26.1538,VALID,24,VALID,0,
2016-08-03, 00:29:04,VALID,914.191,VALID,0,VALID,72.7426,VALID,137.095,VALID,26.2339,VALID,29,VALID,0,
2016-08-03, 00:30:04,VALID,914.214,VALID,0,VALID,72.4606,VALID,61.6712,VALID,26.273,VALID,33,VALID,0.21875,
2016-08-03, 00:31:04,VALID,914.194,VALID,0,VALID,73.1009,VALID,63.82,VALID,26.2339,VALID,31,VALID,0,
2016-08-03, 00:32:04,VALID,914.194,VALID,0,VALID,73.7337,VALID,65.2168,VALID,26.1928,VALID,27,VALID,0.435547,
2016-08-03, 00:33:04,VALID,914.24,VALID,0,VALID,74.0615,VALID,61.5638,VALID,26.1753,VALID,360,VALID,0,
2016-08-03, 00:34:04,VALID,914.261,VALID,0,VALID,72.8875,VALID,58.448,VALID,26.0972,VALID,265,VALID,0,
2016-08-03, 00:35:04,VALID,914.272,VALID,0,VALID,74.5189,VALID,64.3572,VALID,25.9604,VALID,260,VALID,0,
2016-08-03, 00:36:04,VALID,914.312,VALID,0,VALID,73.5507,VALID,75.6386,VALID,25.7847,VALID,260,VALID,0,
2016-08-03, 00:37:04,VALID,914.31,VALID,0,VALID,75.3498,VALID,58.2331,VALID,25.7066,VALID,260,VALID,0,
2016-08-03, 00:38:04,VALID,914.311,VALID,0,VALID,75.8454,VALID,56.7289,VALID,25.648,VALID,350,VALID,0,
2016-08-03, 00:39:04,VALID,914.348,VALID,0,VALID,75.9521,VALID,55.762,VALID,25.4937,VALID,256,VALID,0,
2016-08-03, 00:40:04,VALID,914.681,VALID,0,VALID,77.6064,VALID,48.1336,VALID,25.316,VALID,256,VALID,0,
2016-08-03, 00:41:04,VALID,915.049,VALID,0,VALID,78.5974,VALID,42.9765,VALID,25.2965,VALID,256,VALID,0,
2016-08-03, 00:42:04,VALID,915.316,VALID,0,VALID,77.8275,VALID,42.5467,VALID,25.2945,VALID,350,VALID,0,
2016-08-03, 00:43:04,VALID,914.602,VALID,0,VALID,77.7512,VALID,45.9848,VALID,25.2769,VALID,350,VALID,0,
2016-08-03, 00:44:04,VALID,914.499,VALID,0,VALID,79.0015,VALID,50.2825,VALID,25.1579,VALID,7,VALID,0,
2016-08-03, 00:45:04,VALID,914.542,VALID,0,VALID,79.3598,VALID,99.8128,VALID,25.1188,VALID,7,VALID,0,
2016-08-03, 00:46:04,VALID,914.537,VALID,0,VALID,78.2925,VALID,104.97,VALID,25.0798,VALID,7,VALID,0,
2016-08-03, 00:47:04,VALID,914.579,VALID,0,VALID,79.3445,VALID,92.6143,VALID,25.0036,VALID,6,VALID,0,
2016-08-03, 00:48:04,VALID,914.564,VALID,0,VALID,79.7333,VALID,80.2585,VALID,24.8864,VALID,7,VALID,0,
2016-08-03, 00:49:04,VALID,914.669,VALID,0,VALID,80.0459,VALID,42.7616,VALID,24.8474,VALID,7,VALID,0,
2016-08-03, 00:50:04,VALID,915.651,VALID,0,VALID,80.5338,VALID,38.6788,VALID,24.8278,VALID,7,VALID,0,
2016-08-03, 00:51:04,VALID,915.149,VALID,0,VALID,80.8616,VALID,34.8109,VALID,24.8278,VALID,6,VALID,0,
2016-08-03, 00:52:04,VALID,914.621,VALID,0,VALID,80.8006,VALID,43.9434,VALID,24.7888,VALID,7,VALID,0,
2016-08-03, 00:53:04,VALID,914.679,VALID,0,VALID,81.2046,VALID,39.3235,VALID,24.7888,VALID,6,VALID,0,
2016-08-03, 00:54:04,VALID,914.703,VALID,0,VALID,80.5795,VALID,43.1913,VALID,24.7516,VALID,73,VALID,0,
2016-08-03, 00:55:04,VALID,914.643,VALID,0,VALID,80.9683,VALID,40.7202,VALID,24.693,VALID,73,VALID,0,
2016-08-03, 00:57:04,VALID,914.959,VALID,0,VALID,82.6759,VALID,30.8356,VALID,24.3788,VALID,73,VALID,0,
2016-08-03, 00:58:04,VALID,914.847,VALID,0,VALID,84.5056,VALID,29.1166,VALID,24.2812,VALID,73,VALID,0,
2016-08-03, 00:59:04,VALID,915.579,VALID,0,VALID,84.9477,VALID,27.7198,VALID,24.2617,VALID,73,VALID,0,
2016-08-03, 01:01:04,VALID,916.329,VALID,0,VALID,85.0621,VALID,26.0008,VALID,24.1836,VALID,105,VALID,0,
2016-08-03, 01:02:04,VALID,914.724,VALID,0,VALID,85.5042,VALID,24.8189,VALID,24.086,VALID,123,VALID,0,
2016-08-03, 01:03:04,VALID,916.048,VALID,0,VALID,86.5258,VALID,23.9594,VALID,24.0292,VALID,119,VALID,0,
2016-08-03, 01:04:04,INVALID,911.359,VALID,0,VALID,95.8721,VALID,23.3147,VALID,24.0097,VALID,118,VALID,0,
2016-08-03, 14:14:04,VALID,916.976,VALID,0,INVALID,113.337,VALID,107.441,VALID,19.5108,VALID,353,VALID,0,
2016-08-03, 14:15:04,VALID,916.95,VALID,0,INVALID,113.208,VALID,112.813,VALID,19.5888,VALID,353,VALID,0,
2016-08-03, 14:16:04,VALID,916.918,VALID,0,INVALID,113.017,VALID,116.359,VALID,19.6458,VALID,353,VALID,0,
2016-08-03, 14:17:04,VALID,916.872,VALID,0,INVALID,113.307,VALID,119.904,VALID,19.7838,VALID,353,VALID,0,
2016-08-03, 14:18:04,VALID,916.854,VALID,0,INVALID,113.383,VALID,124.524,VALID,19.9008,VALID,353,VALID,0,
2016-08-03, 14:19:04,VALID,916.86,VALID,0,INVALID,112.636,VALID,130.004,VALID,19.9984,VALID,353,VALID,0,
2016-08-03, 14:20:04,VALID,916.846,VALID,0,INVALID,112.339,VALID,136.88,VALID,20.1349,VALID,353,VALID,0,
2016-08-03, 14:21:04,VALID,916.82,VALID,0,INVALID,111.675,VALID,142.037,VALID,20.3105,VALID,353,VALID,0,
2016-08-03, 14:22:04,VALID,916.839,VALID,0,VALID,104,VALID,146.335,VALID,20.447,VALID,353,VALID,0,
2016-08-03, 14:23:04,VALID,916.898,VALID,0,VALID,100.629,VALID,150.847,VALID,20.6015,VALID,353,VALID,0,
2016-08-03, 14:24:04,VALID,916.932,VALID,0,VALID,90.4061,VALID,152.137,VALID,20.66,VALID,330,VALID,0,
2016-08-03, 14:25:04,VALID,916.973,VALID,0,VALID,88.6984,VALID,156.649,VALID,20.6421,VALID,330,VALID,0,
2016-08-03, 14:26:04,VALID,916.949,VALID,0,VALID,93.4783,VALID,157.401,VALID,20.447,VALID,314,VALID,0,
2016-08-03, 14:27:04,VALID,916.975,VALID,0,VALID,100.111,VALID,157.831,VALID,20.2324,VALID,301,VALID,0,
2016-08-03, 14:28:04,VALID,916.986,VALID,0,VALID,104,VALID,163.74,VALID,20.1349,VALID,301,VALID,0,
2016-08-03, 14:29:04,VALID,916.983,VALID,0,INVALID,109.579,VALID,168.468,VALID,20.0959,VALID,301,VALID,0,
2016-08-03, 14:30:04,VALID,917.018,VALID,0,INVALID,110.494,VALID,176.526,VALID,20.1154,VALID,301,VALID,0,
2016-08-03, 14:31:04,VALID,917.014,VALID,0,INVALID,110.151,VALID,175.881,VALID,20.1154,VALID,301,VALID,0,
2016-08-03, 14:32:04,VALID,917.013,VALID,0,INVALID,110.662,VALID,176.848,VALID,20.1934,VALID,301,VALID,0,
2016-08-03, 14:33:04,VALID,917.021,VALID,0,INVALID,110.006,VALID,185.121,VALID,20.2114,VALID,301,VALID,0,
2016-08-03, 14:34:04,VALID,916.998,VALID,0,VALID,104,VALID,193.824,VALID,20.2909,VALID,301,VALID,0,
2016-08-03, 14:35:04,VALID,917.004,VALID,0,INVALID,110.402,VALID,198.229,VALID,20.3674,VALID,302,VALID,0,
2016-08-03, 14:36:04,VALID,917.065,VALID,0,INVALID,110.204,VALID,207.361,VALID,20.504,VALID,302,VALID,0,
2016-08-03, 14:37:04,VALID,917.05,VALID,0,INVALID,109.579,VALID,202.956,VALID,20.66,VALID,303,VALID,0,
2016-08-03, 14:38:04,VALID,917.043,VALID,0,VALID,104,VALID,222.511,VALID,20.9347,VALID,303,VALID,0,
2016-08-03, 14:39:04,VALID,917.048,VALID,0,VALID,97.3053,VALID,210.585,VALID,21.2453,VALID,302,VALID,0,
2016-08-03, 14:40:04,VALID,917.028,VALID,0,VALID,89.9944,VALID,199.088,VALID,21.616,VALID,335,VALID,0,
2016-08-03, 14:41:04,VALID,917.05,VALID,0,VALID,87.0518,VALID,196.402,VALID,21.9283,VALID,335,VALID,0,
2016-08-03, 14:42:04,VALID,917.051,VALID,0,VALID,83.3773,VALID,195.435,VALID,22.0649,VALID,335,VALID,0,
2016-08-03, 14:43:04,VALID,917.056,VALID,0,VALID,83.5221,VALID,196.295,VALID,22.1413,VALID,335,VALID,0,
2016-08-03, 14:44:04,VALID,917.078,VALID,0,VALID,82.0432,VALID,201.13,VALID,22.182,INVALID,360,VALID,0,
2016-08-03, 14:45:04,VALID,917.121,VALID,0,VALID,81.0674,VALID,208.866,VALID,22.0649,INVALID,360,VALID,0,
2016-08-03, 14:46:04,VALID,917.111,VALID,0,VALID,81.7306,VALID,220.899,VALID,21.9478,VALID,313,VALID,0,
2016-08-03, 14:47:04,VALID,917.133,VALID,0,VALID,81.2122,VALID,226.379,VALID,21.8095,VALID,313,VALID,0,
2016-08-03, 14:48:04,VALID,917.146,VALID,0,VALID,82.188,VALID,224.659,VALID,21.6908,VALID,309,VALID,0,
2016-08-03, 14:49:04,VALID,917.192,VALID,0,VALID,82.3253,VALID,214.882,VALID,21.5754,VALID,299,VALID,0,
2016-08-03, 14:50:04,VALID,917.185,VALID,0,VALID,83.5679,VALID,212.733,VALID,21.4567,VALID,299,VALID,0,
2016-08-03, 14:51:04,VALID,917.191,VALID,0,VALID,84.9172,VALID,222.511,VALID,21.4583,VALID,299,VALID,0,
2016-08-03, 14:52:04,VALID,917.202,VALID,0,VALID,85.2908,VALID,241.313,VALID,21.5185,VALID,299,VALID,0,
2016-08-03, 14:53:04,VALID,917.194,VALID,0,VALID,84.6885,VALID,260.76,VALID,21.6746,VALID,299,VALID,0,
2016-08-03, 14:54:04,VALID,917.199,VALID,0,VALID,82.5692,VALID,267.636,VALID,21.8876,VALID,299,VALID,0,
2016-08-03, 14:55:04,VALID,917.224,VALID,0,VALID,81.4333,VALID,274.512,VALID,22.1413,VALID,299,VALID,0,
2016-08-03, 14:56:04,VALID,917.246,VALID,0,VALID,78.666,VALID,279.132,VALID,22.3754,VALID,299,VALID,0,
2016-08-03, 14:57:04,VALID,917.236,VALID,0,VALID,78.3916,VALID,276.876,VALID,22.4145,VALID,300,VALID,0,
2016-08-03, 14:58:04,VALID,917.235,VALID,0,VALID,78.1476,VALID,289.984,VALID,22.4535,VALID,321,VALID,0,
2016-08-03, 14:59:04,VALID,917.274,VALID,0,VALID,76.1046,VALID,291.273,VALID,22.4535,VALID,306,VALID,0,
2016-08-03, 15:00:04,VALID,917.266,VALID,0,VALID,78.1095,VALID,258.611,VALID,22.2583,VALID,306,VALID,0,
2016-08-03, 15:01:04,VALID,917.297,VALID,0,VALID,79.1158,VALID,247.974,VALID,22.081,VALID,289,VALID,0,
2016-08-03, 15:02:04,VALID,917.271,VALID,0,VALID,81.0293,VALID,268.066,VALID,21.9835,VALID,298,VALID,0,
2016-08-03, 15:03:04,VALID,917.301,VALID,0,VALID,80.8463,VALID,222.188,VALID,21.9444,VALID,298,VALID,0,
2016-08-03, 15:04:04,VALID,917.287,VALID,0,VALID,81.662,VALID,190.493,VALID,21.9038,VALID,294,VALID,0,
2016-08-03, 15:05:04,VALID,917.262,VALID,0,VALID,85.8702,VALID,206.717,VALID,22.003,VALID,353,VALID,0,
2016-08-03, 15:06:04,VALID,917.271,VALID,0,VALID,82.6912,VALID,245.503,VALID,22.1396,VALID,354,VALID,0,
2016-08-03, 15:07:04,VALID,917.287,VALID,0,VALID,81.3952,VALID,258.718,VALID,22.2762,VALID,334,VALID,0,
2016-08-03, 15:08:04,VALID,917.305,VALID,0,VALID,85.0163,VALID,257.966,VALID,22.4518,VALID,335,VALID,0,
2016-08-03, 15:09:04,VALID,917.336,VALID,0,VALID,79.1844,VALID,259.041,VALID,22.5281,VALID,336,VALID,0,
2016-08-03, 15:10:04,VALID,917.355,VALID,0,VALID,77.9952,VALID,267.636,VALID,22.5121,VALID,307,VALID,0,
2016-08-03, 15:11:04,VALID,917.326,VALID,0,VALID,79.0091,VALID,289.446,VALID,22.4713,VALID,302,VALID,0,
2016-08-03, 15:12:04,VALID,917.304,VALID,0,VALID,78.323,VALID,297.612,VALID,22.6292,VALID,303,VALID,0,
2016-08-03, 15:13:04,VALID,917.285,VALID,0,VALID,78.0409,VALID,289.554,VALID,22.5689,VALID,303,VALID,0,
2016-08-03, 15:14:04,VALID,917.27,VALID,0,VALID,79.7943,VALID,279.24,VALID,22.4713,VALID,303,VALID,0,
2016-08-03, 15:15:04,VALID,917.282,VALID,0,VALID,80.732,VALID,279.132,VALID,22.4518,VALID,358,VALID,0,
2016-08-03, 15:16:04,VALID,917.281,VALID,0,VALID,81.8526,VALID,287.942,VALID,22.4908,VALID,8,VALID,0,
2016-08-03, 15:17:04,VALID,917.315,VALID,0,VALID,80.3889,VALID,299.653,VALID,22.6257,VALID,8,VALID,0,
2016-08-03, 15:18:04,VALID,917.305,VALID,0,VALID,80.9454,VALID,327.696,VALID,22.8829,VALID,8,VALID,0,
2016-08-03, 15:19:04,VALID,917.34,VALID,0,VALID,76.4629,VALID,334.572,VALID,23.0373,VALID,13,VALID,0,
2016-08-03, 15:20:04,VALID,917.358,VALID,0,VALID,77.1337,VALID,339.944,VALID,23.1349,VALID,28,VALID,0,
2016-08-03, 15:21:04,VALID,917.355,VALID,0,VALID,76.3942,VALID,327.696,VALID,23.2715,VALID,22,VALID,0,
2016-08-03, 15:22:04,VALID,917.401,VALID,0,VALID,76.6001,VALID,339.836,VALID,23.213,VALID,322,VALID,0,
2016-08-03, 15:23:04,VALID,917.401,VALID,0,VALID,75.9978,VALID,337.58,VALID,23.2698,VALID,325,VALID,0,
2016-08-03, 15:24:04,VALID,917.401,VALID,0,VALID,76.5772,VALID,348.861,VALID,23.3869,VALID,325,VALID,0,
2016-08-03, 15:25:04,VALID,917.359,VALID,0,VALID,73.9319,VALID,346.605,VALID,23.504,VALID,327,VALID,0,
2016-08-03, 15:26:04,VALID,917.398,VALID,0,VALID,74.74,VALID,363.259,VALID,23.5626,VALID,15,VALID,0,
2016-08-03, 15:27:04,VALID,917.35,VALID,0,VALID,74.9077,VALID,345.961,VALID,23.6992,VALID,17,VALID,0,
2016-08-03, 15:28:04,VALID,917.358,VALID,0,VALID,74.1682,VALID,325.332,VALID,23.7169,VALID,7,VALID,0,
2016-08-03, 15:29:04,VALID,917.35,VALID,0,VALID,75.0449,VALID,325.547,VALID,23.7169,VALID,21,VALID,0,
2016-08-03, 15:30:04,VALID,917.398,VALID,0,VALID,74.6561,VALID,357.349,VALID,23.7578,VALID,313,VALID,0,
2016-08-03, 15:31:04,VALID,917.409,VALID,0,VALID,76.5848,VALID,370.457,VALID,23.5803,VALID,16,VALID,0,
2016-08-03, 15:32:04,VALID,917.43,VALID,0,VALID,76.1656,VALID,360.787,VALID,23.4046,VALID,318,VALID,0,
2016-08-03, 15:33:04,VALID,917.421,VALID,0,VALID,76.6382,VALID,354.556,VALID,23.3656,VALID,336,VALID,0,
2016-08-03, 15:34:04,VALID,917.423,VALID,0,VALID,76.9279,VALID,364.87,VALID,23.3851,VALID,359,VALID,0,
2016-08-03, 15:35:04,VALID,917.426,VALID,0,VALID,76.5391,VALID,351.118,VALID,23.4046,VALID,317,VALID,0,
2016-08-03, 15:36:04,VALID,917.409,VALID,0,VALID,75.7539,VALID,346.068,VALID,23.4632,VALID,317,VALID,0,
2016-08-03, 15:37:04,VALID,917.408,VALID,0,VALID,75.3498,VALID,352.3,VALID,23.4827,VALID,317,VALID,0,
2016-08-03, 15:38:04,VALID,917.418,VALID,0,VALID,75.6929,VALID,363.366,VALID,23.504,VALID,317,VALID,0,
2016-08-03, 15:39:04,VALID,917.452,VALID,0,VALID,74.9992,VALID,348.324,VALID,23.6016,VALID,317,VALID,0,
2016-08-03, 15:40:04,VALID,917.472,VALID,0,VALID,75.3727,VALID,332.96,VALID,23.7187,VALID,311,VALID,0,
2016-08-03, 15:41:04,VALID,917.442,VALID,0,VALID,74.1377,VALID,327.266,VALID,23.6974,VALID,298,VALID,0,
2016-08-03, 15:42:04,VALID,917.455,VALID,0,VALID,75.3575,VALID,328.555,VALID,23.6974,VALID,299,VALID,0,
2016-08-03, 15:43:04,VALID,917.398,VALID,0,VALID,72.8875,VALID,314.588,VALID,23.6388,VALID,300,VALID,0,
2016-08-03, 15:44:04,VALID,917.391,VALID,0,VALID,75.5176,VALID,335.431,VALID,23.5608,VALID,300,VALID,0,
2016-08-03, 15:45:04,VALID,917.381,VALID,0,VALID,76.4781,VALID,356.382,VALID,23.3851,VALID,307,VALID,0,
2016-08-03, 15:46:04,VALID,917.333,VALID,0,VALID,77.4692,VALID,357.779,VALID,23.2875,VALID,343,VALID,0,
2016-08-03, 15:47:04,VALID,917.376,VALID,0,VALID,77.3014,VALID,363.903,VALID,23.229,VALID,336,VALID,0,
2016-08-03, 15:48:04,VALID,917.383,VALID,0,VALID,77.027,VALID,354.233,VALID,23.268,VALID,337,VALID,0,
2016-08-03, 15:49:04,VALID,917.352,VALID,0,VALID,75.9063,VALID,362.077,VALID,23.3656,INVALID,360,VALID,0,
2016-08-03, 15:50:04,VALID,917.393,VALID,0,VALID,75.4261,VALID,363.581,VALID,23.4046,VALID,310,VALID,0,
2016-08-03, 15:51:04,VALID,917.39,VALID,0,VALID,75.4032,VALID,352.944,VALID,23.3851,VALID,287,VALID,0,
2016-08-03, 15:52:04,VALID,917.393,VALID,0,VALID,75.7539,VALID,365.515,VALID,23.3656,VALID,292,VALID,0,
2016-08-03, 15:53:04,VALID,917.417,VALID,0,VALID,74.7095,VALID,361.862,VALID,23.4419,VALID,291,VALID,0,
2016-08-03, 15:54:04,VALID,917.417,VALID,0,VALID,75.2355,VALID,356.382,VALID,23.598,VALID,287,VALID,0,
2016-08-03, 15:55:04,VALID,917.434,VALID,0,VALID,73.5355,VALID,364.763,VALID,23.7151,VALID,19,VALID,0,
2016-08-03, 15:56:04,VALID,917.425,VALID,0,VALID,73.3068,VALID,375.077,VALID,23.8127,VALID,14,VALID,0,
2016-08-03, 15:57:04,VALID,917.469,VALID,0,VALID,73.1467,VALID,377.226,VALID,23.9707,VALID,356,VALID,0,
2016-08-03, 15:58:04,VALID,917.469,VALID,0,VALID,73.9395,VALID,371.424,VALID,24.0665,VALID,356,VALID,0,
2016-08-03, 15:59:04,VALID,917.459,VALID,0,VALID,73.7718,VALID,366.697,VALID,24.125,VALID,347,VALID,0,
2016-08-03, 16:00:04,VALID,917.489,VALID,0,VALID,74.3588,VALID,371.961,VALID,24.125,VALID,359,VALID,0,
2016-08-03, 16:01:04,VALID,917.487,VALID,0,VALID,72.552,VALID,388.722,VALID,24.2421,VALID,6,VALID,0,
2016-08-03, 16:02:04,VALID,917.473,VALID,0,VALID,72.4834,VALID,385.391,VALID,24.3379,VALID,5,VALID,0,
2016-08-03, 16:03:04,VALID,917.479,VALID,0,VALID,72.9103,VALID,398.822,VALID,24.3965,VALID,6,VALID,0,
2016-08-03, 16:04:04,VALID,917.465,VALID,0,VALID,68.6489,VALID,411.822,VALID,24.4959,VALID,354,VALID,0,
2016-08-03, 16:05:04,VALID,917.478,VALID,0,VALID,69.1901,VALID,391.623,VALID,24.4978,VALID,16,VALID,0,
2016-08-03, 16:06:04,VALID,917.509,VALID,0,VALID,70.0592,VALID,382.491,VALID,24.5368,VALID,309,VALID,0,
2016-08-03, 16:07:04,VALID,917.473,VALID,0,VALID,68.4964,VALID,388.4,VALID,24.5545,VALID,19,VALID,0,
2016-08-03, 16:08:04,VALID,917.48,VALID,0,VALID,68.7785,VALID,396.995,VALID,24.5935,VALID,339,VALID,0,
2016-08-03, 16:09:04,VALID,917.529,VALID,0,VALID,67.391,VALID,403.119,VALID,24.5545,VALID,345,VALID,0,
2016-08-03, 16:10:04,VALID,917.504,VALID,0,VALID,67.2004,VALID,396.995,VALID,24.5564,VALID,342,VALID,0,
2016-08-03, 16:11:04,VALID,917.498,VALID,0,VALID,68.1686,VALID,401.615,VALID,24.6735,VALID,334,VALID,0,
2016-08-03, 16:12:04,VALID,917.478,VALID,0,VALID,68.4659,VALID,409.136,VALID,24.6326,VALID,330,VALID,0,
2016-08-03, 16:13:04,VALID,917.524,VALID,0,VALID,69.9601,VALID,396.458,VALID,24.6131,VALID,356,VALID,0,
2016-08-03, 16:14:04,VALID,917.489,VALID,0,VALID,69.03,VALID,411.607,VALID,24.6716,VALID,352,VALID,0,
2016-08-03, 16:15:04,VALID,917.506,VALID,0,VALID,68.969,VALID,429.872,VALID,24.5155,VALID,284,VALID,0,
2016-08-03, 16:16:04,VALID,917.503,VALID,0,VALID,69.5484,VALID,447.922,VALID,24.2421,VALID,309,VALID,0,
2016-08-03, 16:17:04,VALID,917.497,VALID,0,VALID,71.0502,VALID,462.319,VALID,24.1641,VALID,350,VALID,0,
2016-08-03, 16:18:04,VALID,917.477,VALID,0,VALID,71.1646,VALID,482.088,VALID,24.2617,VALID,355,VALID,0,
2016-08-03, 16:19:04,VALID,917.514,VALID,0,VALID,71.6144,VALID,479.832,VALID,24.416,INVALID,360,VALID,0,
2016-08-03, 16:20:04,VALID,917.493,VALID,0,VALID,67.3681,VALID,482.948,VALID,24.5545,INVALID,360,VALID,0,
2016-08-03, 16:21:04,VALID,917.507,VALID,0,VALID,67.3148,VALID,488.105,VALID,24.5155,VALID,321,VALID,0,
2016-08-03, 16:22:04,VALID,917.53,VALID,0,VALID,68.2219,VALID,483.055,VALID,24.4764,VALID,325,VALID,0,
2016-08-03, 16:23:04,VALID,917.478,VALID,0,VALID,68.9004,VALID,472.634,VALID,24.4745,VALID,307,VALID,0,
2016-08-03, 16:24:04,VALID,917.492,VALID,0,VALID,66.5372,VALID,469.625,VALID,24.3965,VALID,292,VALID,0,
2016-08-03, 16:25:04,VALID,917.496,VALID,0,VALID,70.1354,VALID,465.113,VALID,24.3965,VALID,307,VALID,0,
2016-08-03, 16:26:04,VALID,917.509,VALID,0,VALID,69.1596,VALID,479.725,VALID,24.6112,VALID,332,VALID,0,
2016-08-03, 16:27:04,VALID,917.499,VALID,0,VALID,67.2004,VALID,499.816,VALID,24.7888,VALID,330,VALID,0,
2016-08-03, 16:28:04,VALID,917.473,VALID,0,VALID,68.2219,VALID,507.337,VALID,24.8064,VALID,332,VALID,0,
2016-08-03, 16:29:04,VALID,917.437,VALID,0,VALID,67.6578,VALID,501.32,VALID,24.7869,VALID,330,VALID,0,
2016-08-03, 16:30:04,VALID,917.421,VALID,0,VALID,67.9399,VALID,517.544,VALID,24.8259,VALID,332,VALID,0,
2016-08-03, 16:31:04,VALID,917.401,VALID,0,VALID,67.9399,VALID,531.726,VALID,24.8845,VALID,16,VALID,0,
2016-08-03, 16:32:04,VALID,917.406,VALID,0,VALID,68.6031,VALID,518.296,VALID,25.0017,VALID,359,VALID,0,
2016-08-03, 16:33:04,VALID,917.384,VALID,0,VALID,67.7417,VALID,523.023,VALID,24.9626,VALID,17,VALID,0,
2016-08-03, 16:34:04,VALID,917.404,VALID,0,VALID,67.6807,VALID,537.528,VALID,24.8064,VALID,298,VALID,0,
2016-08-03, 16:35:04,VALID,917.397,VALID,0,VALID,70.0363,VALID,560.95,VALID,24.5331,VALID,323,VALID,0,
2016-08-03, 16:36:04,VALID,917.388,VALID,0,VALID,68.6641,VALID,538.602,VALID,24.5312,VALID,298,VALID,0,
2016-08-03, 16:37:04,VALID,917.405,VALID,0,VALID,66.9412,VALID,538.173,VALID,24.5917,VALID,7,VALID,0,
2016-08-03, 16:38:04,VALID,917.447,VALID,0,VALID,68.0237,VALID,520.767,VALID,24.5898,VALID,30,VALID,0,
2016-08-03, 16:39:04,VALID,917.423,VALID,0,VALID,67.2385,VALID,491.866,VALID,24.7674,VALID,319,VALID,0,
2016-08-03, 16:40:04,VALID,917.447,VALID,0,VALID,66.034,VALID,527.321,VALID,24.7479,VALID,294,VALID,0,
2016-08-03, 16:41:04,VALID,917.415,VALID,0,VALID,66.7354,VALID,527.429,VALID,24.5898,VALID,360,VALID,0,
2016-08-03, 16:42:04,VALID,917.462,VALID,0,VALID,67.1318,VALID,567.934,VALID,24.5526,VALID,345,VALID,0,
2016-08-03, 16:43:04,VALID,917.486,VALID,0,VALID,69.152,VALID,574.488,VALID,24.6288,VALID,291,VALID,0,
2016-08-03, 16:44:04,VALID,917.5,VALID,0,VALID,69.2435,VALID,587.273,VALID,24.4727,VALID,291,VALID,0,
2016-08-03, 16:45:04,VALID,917.553,VALID,0,VALID,69.2969,VALID,580.827,VALID,24.3361,VALID,297,VALID,0,
2016-08-03, 16:46:04,VALID,917.567,VALID,0,VALID,70.9283,VALID,602.208,VALID,24.4141,VALID,333,VALID,0,
2016-08-03, 16:47:04,VALID,917.564,VALID,0,VALID,70.1659,VALID,592.216,VALID,24.5684,VALID,322,VALID,0,
2016-08-03, 16:48:04,VALID,917.551,VALID,0,VALID,68.9386,VALID,551.281,VALID,24.6679,VALID,308,VALID,0,
2016-08-03, 16:49:04,VALID,917.555,VALID,0,VALID,69.1215,VALID,564.818,VALID,24.785,VALID,348,VALID,0,
2016-08-03, 16:50:04,VALID,917.568,VALID,0,VALID,70.0439,VALID,526.139,VALID,24.9998,VALID,4,VALID,0,
2016-08-03, 16:51:04,VALID,917.578,VALID,0,VALID,69.7161,VALID,579.215,VALID,25.236,VALID,360,VALID,0,
2016-08-03, 16:52:04,VALID,917.539,VALID,0,VALID,66.6591,VALID,579.752,VALID,25.4898,VALID,2,VALID,0.169141,
2016-08-03, 16:53:04,VALID,917.529,VALID,0,VALID,68.0161,VALID,551.495,VALID,25.5464,VALID,338,VALID,0,
2016-08-03, 16:54:04,VALID,917.548,VALID,0,VALID,68.7251,VALID,577.066,VALID,25.607,VALID,340,VALID,0,
2016-08-03, 16:55:04,VALID,917.526,VALID,0,VALID,67.0784,VALID,598.877,VALID,25.4488,VALID,355,VALID,0.00078125,
2016-08-03, 16:56:04,VALID,917.521,VALID,0,VALID,68.9386,VALID,592.86,VALID,25.4683,VALID,20,VALID,0,
2016-08-03, 16:57:04,VALID,917.518,VALID,0,VALID,68.5269,VALID,592.645,VALID,25.4879,VALID,21,VALID,0.189453,